Bush, KY

6:38 AM EST on February 08, 2016 (GMT -0500)
London-Corbin / McKee

Weather History for KLOZ - July, 2014

Change the Weather History Date:

Monday, July 7, 2014

  Actual Average Record
Temperature  
Mean Temperature 78 °F 76 °F  
Max Temperature 91 °F 87 °F 99 °F (2012)
Min Temperature 65 °F 66 °F 46 °F (1972)
Degree Days  
Heating Degree Days 0 0  
Month to date heating degree days 0 0  
Since 1 June heating degree days 9  
Since 1 July heating degree days 0 0  
Cooling Degree Days 13 11  
Month to date cooling degree days 71 77  
Year to date cooling degree days 434  
Since 1 June cooling degree days 320  
Growing Degree Days 27 (Base 50)    
Moisture  
Dew Point 59 °F    
Average Humidity 60    
Maximum Humidity 87    
Minimum Humidity 32    
Precipitation  
Precipitation 0.00 in 0.13 in 1.56 in (2013)
Month to date precipitation T 0.94  
Year to date precipitation 25.87  
Sea Level Pressure  
Sea Level Pressure 29.96 in    
Wind  
Wind Speed 8 mph (SW)    
Max Wind Speed 21 mph    
Max Gust Speed 28 mph    
Visibility 10 miles    
Events      
T = Trace of Precipitation, MM = Missing Value Source: NWS Daily Summary

Daily Weather History Graph

Daily Weather History Graph

Search for Another Location

Airport or City:

Trip Planner

Search our weather history database for the weather conditions in past years. The results will help you decide how hot, cold, wet, or windy it might be!

Date:

Astronomy

Jul. 07, 2014 Rise Set
Actual Time 6:23 AM EDT 8:59 PM EDT
Civil Twilight 5:52 AM EDT 9:29 PM EDT
Nautical Twilight 5:14 AM EDT 10:07 PM EDT
Astronomical Twilight 4:32 AM EDT 10:49 PM EDT
Moon 4:04 PM EDT (7/7) 2:11 AM EDT (7/7)
Length of Visible Light 15h 36m
Length of Day
14h 35m
Waxing Gibbous, 72% of the Moon is Illuminated
Jul 7
Waxing Gibbous
Jul 12
Full
Jul 18
Last Quarter
Jul 26
New
Aug 3
First Quarter

Hourly Weather History & Observations

Time (EDT) Temp. Heat Index Dew Point Humidity Pressure Visibility Wind Dir Wind Speed Gust Speed Precip Events Conditions
12:53 AM 69.1 °F - 62.1 °F 78% 30.01 in 10.0 mi Calm Calm - N/A   Clear
1:53 AM 69.1 °F - 61.0 °F 75% 30.01 in 10.0 mi Calm Calm - N/A   Clear
2:53 AM 68.0 °F - 61.0 °F 78% 29.99 in 10.0 mi Calm Calm - N/A   Clear
3:53 AM 64.9 °F - 60.1 °F 84% 29.99 in 10.0 mi Calm Calm - N/A   Clear
4:53 AM 69.1 °F - 59.0 °F 70% 29.98 in 10.0 mi Calm Calm - N/A   Clear
5:53 AM 68.0 °F - 59.0 °F 73% 29.98 in 10.0 mi SSW 3.5 mph - N/A   Clear
6:53 AM 66.0 °F - 59.0 °F 78% 29.99 in 10.0 mi Calm Calm - N/A   Clear
7:53 AM 71.1 °F - 61.0 °F 70% 30.00 in 10.0 mi SSW 5.8 mph - N/A   Clear
8:53 AM 75.0 °F - 62.1 °F 64% 30.00 in 10.0 mi SSW 8.1 mph - N/A   Clear
9:53 AM 79.0 °F - 63.0 °F 58% 30.01 in 10.0 mi SW 10.4 mph - N/A   Clear
10:53 AM 81.0 °F 82.5 °F 64.0 °F 56% 30.01 in 10.0 mi SW 8.1 mph - N/A   Clear
11:53 AM 84.9 °F 85.9 °F 63.0 °F 48% 30.01 in 10.0 mi WSW 19.6 mph 26.5 mph N/A   Partly Cloudy
12:53 PM 86.0 °F 86.1 °F 61.0 °F 43% 29.99 in 10.0 mi SW 15.0 mph 20.7 mph N/A   Partly Cloudy
1:53 PM 88.0 °F 87.6 °F 60.1 °F 39% 29.97 in 10.0 mi SW 12.7 mph 19.6 mph N/A   Scattered Clouds
2:53 PM 89.1 °F 88.8 °F 60.1 °F 38% 29.94 in 10.0 mi WSW 15.0 mph 19.6 mph N/A   Partly Cloudy
3:53 PM 90.0 °F 89.1 °F 59.0 °F 35% 29.92 in 10.0 mi SW 12.7 mph 21.9 mph N/A   Clear
4:53 PM 90.0 °F 88.1 °F 55.9 °F 31% 29.90 in 10.0 mi SW 19.6 mph 25.3 mph N/A   Clear
5:53 PM 90.0 °F 87.9 °F 55.0 °F 30% 29.88 in 10.0 mi SW 11.5 mph 26.5 mph N/A   Clear
6:53 PM 89.1 °F 87.1 °F 55.0 °F 31% 29.90 in 10.0 mi WSW 12.7 mph - N/A   Clear
7:53 PM 86.0 °F 84.5 °F 55.0 °F 35% 29.92 in 10.0 mi SW 11.5 mph - N/A   Clear
8:53 PM 82.9 °F 82.1 °F 55.9 °F 39% 29.93 in 10.0 mi SW 8.1 mph - N/A   Clear
9:53 PM 80.1 °F 80.4 °F 57.0 °F 45% 29.94 in 10.0 mi South 4.6 mph - N/A   Partly Cloudy
10:53 PM 80.1 °F 80.2 °F 55.9 °F 43% 29.95 in 10.0 mi SSW 5.8 mph - N/A   Mostly Cloudy
11:53 PM 79.0 °F - 57.9 °F 48% 29.92 in 10.0 mi SSW 8.1 mph - N/A   Clear